Weather History for KTEX - April, 2014

Change the Weather History Date:

Monday, April 28, 2014

  Actual Average Record
Temperature  
Mean Temperature 28 °F -  
Max Temperature 33 °F 49 °F 68 °F (2007)
Min Temperature 24 °F 28 °F 21 °F (2011)
Degree Days  
Heating Degree Days 36    
Moisture  
Dew Point 15 °F    
Average Humidity 58    
Maximum Humidity 93    
Minimum Humidity 38    
Precipitation  
Precipitation 0.02 in - - ()
Sea Level Pressure  
Sea Level Pressure 30.00 in    
Wind  
Wind Speed 11 mph (WNW)    
Max Wind Speed 26 mph    
Max Gust Speed 34 mph    
Visibility 8 miles    
Events Snow    
Averages and records for this station are not official NWS values.
T = Trace of Precipitation, MM = Missing Value Source: NWS Daily Summary

Daily Weather History Graph

Daily Weather History Graph

Search for Another Location

Airport or City:

Trip Planner

Search our weather history database for the weather conditions in past years. The results will help you decide how hot, cold, wet, or windy it might be!

Date:

Astronomy

Apr. 28, 2014 Rise Set
Actual Time 6:19 AM MDT 7:59 PM MDT
Civil Twilight 5:51 AM MDT 8:27 PM MDT
Nautical Twilight 5:17 AM MDT 9:01 PM MDT
Astronomical Twilight 4:41 AM MDT 9:38 PM MDT
Moon 5:58 AM MDT (4/28) 7:41 PM MDT (4/28)
Length of Visible Light 14h 36m
Length of Day
13h 40m
Waning Crescent, 0% of the Moon is Illuminated
Apr 28
Waning Crescent
Apr 29
New
May 6
First Quarter
May 14
Full
May 21
Last Quarter

Hourly Weather History & Observations

Time (MDT) Temp. Windchill Dew Point Humidity Pressure Visibility Wind Dir Wind Speed Gust Speed Precip Events Conditions
6:16 AM 26.6 °F 19.1 °F 19.4 °F 74% 29.89 in 10.0 mi WNW 6.9 mph 17.3 mph N/A   Overcast
6:36 AM 26.6 °F 16.8 °F 21.2 °F 80% 29.89 in 10.0 mi West 10.4 mph - N/A Snow Light Snow
6:56 AM 26.6 °F 17.5 °F 21.2 °F 80% 29.90 in 3.0 mi West 9.2 mph - N/A Snow Light Snow
7:36 AM 26.6 °F 16.8 °F 21.2 °F 80% 29.92 in 7.0 mi West 10.4 mph 17.3 mph N/A Snow Light Snow
7:56 AM 26.6 °F 16.8 °F 21.2 °F 80% 29.92 in 10.0 mi West 10.4 mph 16.1 mph N/A   Overcast
8:16 AM 26.6 °F 18.2 °F 21.2 °F 80% 29.93 in 4.0 mi WSW 8.1 mph - N/A Snow Light Snow
8:36 AM 26.6 °F 16.8 °F 23.0 °F 86% 29.92 in 2.0 mi West 10.4 mph - N/A Snow Light Snow
8:56 AM 26.6 °F 16.2 °F 24.8 °F 93% 29.92 in 0.8 mi West 11.5 mph - N/A Snow Light Snow
9:16 AM 26.6 °F 14.7 °F 24.8 °F 93% 29.93 in 1.2 mi West 15.0 mph 21.9 mph N/A Snow Light Snow
9:36 AM 28.4 °F 17.0 °F 23.0 °F 80% 29.94 in 1.2 mi West 15.0 mph 20.7 mph N/A Snow Light Snow
9:56 AM 28.4 °F 18.5 °F 21.2 °F 74% 29.95 in 10.0 mi West 11.5 mph 25.3 mph N/A   Overcast
10:36 AM 28.4 °F 15.8 °F 19.4 °F 69% 29.95 in 10.0 mi West 18.4 mph 24.2 mph N/A   Overcast
10:56 AM 30.2 °F 19.3 °F 19.4 °F 64% 29.94 in 7.0 mi West 15.0 mph 23.0 mph N/A Snow Light Snow
11:16 AM 32.0 °F 26.4 °F 19.4 °F 60% 29.93 in 7.0 mi NW 5.8 mph - N/A   Overcast
11:36 AM 28.4 °F 20.4 °F 21.2 °F 74% 29.95 in 3.0 mi West 8.1 mph 17.3 mph N/A Snow Light Snow
11:56 AM 30.2 °F 20.8 °F 19.4 °F 64% 29.94 in 3.0 mi West 11.5 mph 23.0 mph 0.01 in Snow Light Snow
12:16 PM 26.6 °F 18.2 °F 21.2 °F 80% 29.95 in 0.8 mi NNW 8.1 mph 31.1 mph 0.01 in Snow Light Snow
12:37 PM 30.2 °F 25.4 °F 17.6 °F 60% 29.95 in 10.0 mi WNW 4.6 mph 16.1 mph 0.01 in   Overcast
12:56 PM 30.2 °F 22.6 °F 19.4 °F 64% 29.96 in 4.0 mi NW 8.1 mph 27.6 mph N/A   Haze
2:16 PM 30.2 °F 18.9 °F 15.8 °F 55% 29.96 in 7.0 mi West 16.1 mph 25.3 mph N/A   Overcast
2:36 PM 32.0 °F 21.2 °F 14.0 °F 48% 29.97 in 10.0 mi West 16.1 mph 26.5 mph N/A   Overcast
2:56 PM 32.0 °F 20.5 °F 10.4 °F 41% 29.97 in 10.0 mi West 18.4 mph 33.4 mph N/A   Overcast
3:16 PM 30.2 °F 21.9 °F 12.2 °F 47% 29.97 in 7.0 mi WNW 9.2 mph 24.2 mph N/A   Overcast
3:36 PM 33.8 °F 23.2 °F 10.4 °F 38% 29.97 in 7.0 mi West 17.3 mph 34.5 mph N/A   Mostly Cloudy
4:16 PM 32.0 °F 19.8 °F 10.4 °F 41% 29.99 in 10.0 mi West 20.7 mph 29.9 mph N/A   Mostly Cloudy
4:56 PM 32.0 °F 18.4 °F 8.6 °F 38% 29.99 in 10.0 mi West 26.5 mph 33.4 mph N/A   Overcast
5:16 PM 30.2 °F 19.3 °F 10.4 °F 44% 30.00 in 10.0 mi West 15.0 mph 19.6 mph N/A   Overcast
5:36 PM 30.2 °F 22.6 °F 10.4 °F 44% 30.00 in 10.0 mi NW 8.1 mph 18.4 mph N/A   Overcast
5:56 PM 32.0 °F 19.5 °F 8.6 °F 38% 30.00 in 10.0 mi West 21.9 mph 34.5 mph N/A   Overcast
6:16 PM 30.2 °F 17.1 °F 8.6 °F 40% 30.02 in 10.0 mi West 21.9 mph 33.4 mph N/A   Overcast
6:36 PM 30.2 °F 20.8 °F 8.6 °F 40% 30.02 in 10.0 mi WNW 11.5 mph 26.5 mph N/A   Mostly Cloudy
6:56 PM 30.2 °F 20.8 °F 8.6 °F 40% 30.03 in 10.0 mi WNW 11.5 mph 34.5 mph N/A   Mostly Cloudy
7:16 PM 30.2 °F 21.9 °F 8.6 °F 40% 30.04 in 10.0 mi NNW 9.2 mph 19.6 mph N/A   Overcast
7:36 PM 28.4 °F 17.0 °F 10.4 °F 47% 30.05 in 10.0 mi WNW 15.0 mph 21.9 mph N/A   Overcast
7:56 PM 28.4 °F 20.4 °F 10.4 °F 47% 30.06 in 10.0 mi NW 8.1 mph 23.0 mph N/A   Overcast
8:16 PM 28.4 °F 16.2 °F 8.6 °F 43% 30.06 in 10.0 mi NW 17.3 mph 28.8 mph N/A   Overcast
8:56 PM 26.6 °F 18.2 °F 14.0 °F 59% 30.09 in 3.0 mi North 8.1 mph 24.2 mph N/A Snow Light Snow
9:16 PM 26.6 °F 22.6 °F 12.2 °F 55% 30.11 in 10.0 mi North 3.5 mph 23.0 mph N/A   Overcast
9:36 PM 26.6 °F 20.0 °F 10.4 °F 51% 30.12 in 10.0 mi North 5.8 mph 17.3 mph N/A   Overcast
10:16 PM 24.8 °F 20.5 °F 8.6 °F 50% 30.13 in 10.0 mi NW 3.5 mph - N/A   Mostly Cloudy
10:36 PM 24.8 °F 17.9 °F 8.6 °F 50% 30.13 in 10.0 mi North 5.8 mph - N/A   Overcast
10:56 PM 24.8 °F 19.1 °F 8.6 °F 50% 30.13 in 10.0 mi NNW 4.6 mph 16.1 mph N/A   Overcast
11:16 PM 24.8 °F 15.3 °F 8.6 °F 50% 30.14 in 10.0 mi WNW 9.2 mph - N/A   Scattered Clouds
11:36 PM 24.8 °F 15.3 °F 8.6 °F 50% 30.14 in 10.0 mi WNW 9.2 mph - N/A   Scattered Clouds
11:56 PM 24.8 °F 16.9 °F 8.6 °F 50% 30.15 in 10.0 mi NW 6.9 mph 19.6 mph N/A   Mostly Cloudy